• In Romania
  • List of Countries
  • For 7 days
  • Water Temperature
  • Satellite Maps
  • Weather Map
  • Weather Widgets
  • user-avatar
    Login

    Hourly Weather Semenovskoe

    Today, 20 September, Thursday

    Time Temperature Precipitation Wind Pressure Humidity
    00:00 +16°C° 0 mm 3 mps 744 mmHg 93%
    01:00 +16°C° 0 mm 3 mps 744 mmHg 94%
    02:00 +15°C° 0 mm 2 mps 744 mmHg 97%
    03:00 +15°C° 0 mm 2 mps 745 mmHg 97%
    04:00 +14°C° 0 mm 3 mps 745 mmHg 97%
    05:00 +14°C° 0 mm 3 mps 745 mmHg 97%
    06:00 +16°C° 0 mm 3 mps 745 mmHg 93%
    07:00 +15°C° 0 mm 4 mps 746 mmHg 89%
    08:00 +17°C° 0 mm 4 mps 746 mmHg 84%
    09:00 +18°C° 0 mm 4 mps 746 mmHg 78%
    10:00 +19°C° 0 mm 4 mps 746 mmHg 71%
    11:00 +20°C° 0 mm 4 mps 746 mmHg 65%
    12:00 +21°C° 0 mm 4 mps 747 mmHg 62%
    13:00 +22°C° 0 mm 4 mps 747 mmHg 59%
    14:00 +24°C° 0 mm 3 mps 747 mmHg 56%
    15:00 +21°C° 0 mm 3 mps 747 mmHg 62%
    16:00 +20°C° 0 mm 2 mps 747 mmHg 68%
    17:00 +19°C° 0 mm 2 mps 747 mmHg 74%
    18:00 +18°C° 0 mm 2 mps 747 mmHg 78%
    19:00 +17°C° 0 mm 2 mps 747 mmHg 83%
    20:00 +16°C° 0 mm 2 mps 747 mmHg 87%
    21:00 +15°C° 0 mm 2 mps 748 mmHg 89%
    22:00 +15°C° 0 mm 2 mps 748 mmHg 91%
    23:00 +14°C° 0 mm 2 mps 748 mmHg 92%

    Tomorrow, 21 September, Friday

    Time Temperature Precipitation Wind Pressure Humidity
    00:00 +14°C° 0 mm 2 mps 748 mmHg 93%
    01:00 +14°C° 0 mm 2 mps 748 mmHg 93%
    02:00 +14°C° 0 mm 2 mps 748 mmHg 94%
    03:00 +13°C° 0 mm 2 mps 748 mmHg 94%
    04:00 +13°C° 0 mm 2 mps 749 mmHg 94%
    05:00 +13°C° 0 mm 2 mps 749 mmHg 95%
    06:00 +15°C° 0 mm 2 mps 749 mmHg 90%
    07:00 +16°C° 0 mm 2 mps 749 mmHg 85%
    08:00 +17°C° 0 mm 2 mps 749 mmHg 80%
    09:00 +19°C° 0 mm 2 mps 749 mmHg 75%
    10:00 +21°C° 0 mm 3 mps 749 mmHg 70%
    11:00 +24°C° 0 mm 3 mps 749 mmHg 65%
    12:00 +24°C° 0 mm 3 mps 749 mmHg 63%
    13:00 +25°C° 0 mm 3 mps 749 mmHg 62%
    14:00 +25°C° 0 mm 3 mps 749 mmHg 61%
    15:00 +24°C° 0 mm 3 mps 749 mmHg 67%
    16:00 +23°C° 0 mm 2 mps 748 mmHg 73%
    17:00 +21°C° 0 mm 2 mps 748 mmHg 79%
    18:00 +20°C° 0 mm 2 mps 748 mmHg 82%
    19:00 +19°C° 0 mm 2 mps 748 mmHg 86%
    20:00 +18°C° 0 mm 2 mps 748 mmHg 89%
    21:00 +17°C° 0 mm 2 mps 748 mmHg 90%
    22:00 +17°C° 0 mm 2 mps 748 mmHg 92%
    23:00 +16°C° 0 mm 2 mps 748 mmHg 93%

    Day after tomorrow, 22 September, Saturday

    Time Temperature Precipitation Wind Pressure Humidity
    00:00 +16°C° 0 mm 3 mps 748 mmHg 93%
    01:00 +16°C° 0 mm 3 mps 747 mmHg 94%
    02:00 +16°C° 0 mm 3 mps 747 mmHg 95%
    03:00 +16°C° 0 mm 3 mps 747 mmHg 95%
    04:00 +16°C° 0 mm 3 mps 747 mmHg 95%
    05:00 +16°C° 0 mm 3 mps 746 mmHg 95%
    06:00 +17°C° 0 mm 4 mps 746 mmHg 90%
    07:00 +18°C° 0 mm 4 mps 745 mmHg 84%
    08:00 +19°C° 0 mm 5 mps 745 mmHg 78%
    09:00 +20°C° 0 mm 5 mps 745 mmHg 70%
    10:00 +22°C° 0 mm 6 mps 744 mmHg 63%
    11:00 +23°C° 0 mm 6 mps 744 mmHg 56%
    12:00 +23°C° 0 mm 6 mps 743 mmHg 54%
    13:00 +24°C° 0 mm 6 mps 743 mmHg 53%
    14:00 +24°C° 0 mm 6 mps 743 mmHg 51%
    15:00 +22°C° 0.2 mm 5 mps 743 mmHg 58%
    16:00 +21°C° 0.2 mm 5 mps 743 mmHg 64%
    17:00 +20°C° 0.2 mm 4 mps 743 mmHg 70%
    18:00 +18°C° 0.5 mm 4 mps 743 mmHg 74%
    19:00 +16°C° 0.5 mm 3 mps 743 mmHg 78%
    20:00 +13°C° 0.5 mm 3 mps 743 mmHg 82%
    21:00 +12°C° 0.1 mm 3 mps 743 mmHg 83%
    22:00 +13°C° 0.1 mm 2 mps 743 mmHg 83%
    23:00 +12°C° 0.1 mm 2 mps 744 mmHg 84%

    23 September, Sunday

    Time Temperature Precipitation Wind Pressure Humidity
    00:00 +12°C° 0.2 mm 2 mps 744 mmHg 87%
    01:00 +12°C° 0.2 mm 2 mps 743 mmHg 89%
    02:00 +10°C° 0.2 mm 2 mps 743 mmHg 91%
    03:00 +10°C° 0.7 mm 2 mps 743 mmHg 92%
    04:00 +10°C° 0.7 mm 2 mps 743 mmHg 93%
    05:00 +10°C° 0.7 mm 2 mps 743 mmHg 95%
    06:00 +10°C° 1 mm 2 mps 742 mmHg 94%
    07:00 +10°C° 1 mm 2 mps 742 mmHg 94%
    08:00 +10°C° 1 mm 2 mps 742 mmHg 94%
    09:00 +10°C° 0.4 mm 2 mps 742 mmHg 92%
    10:00 +12°C° 0.4 mm 2 mps 742 mmHg 89%
    11:00 +12°C° 0.4 mm 2 mps 741 mmHg 86%
    12:00 +12°C° 0.1 mm 3 mps 741 mmHg 82%
    13:00 +12°C° 0.1 mm 3 mps 741 mmHg 79%
    14:00 +13°C° 0.1 mm 3 mps 741 mmHg 75%
    15:00 +12°C° 0.2 mm 3 mps 741 mmHg 77%
    16:00 +12°C° 0.2 mm 3 mps 741 mmHg 80%
    17:00 +11°C° 0.2 mm 3 mps 740 mmHg 82%
    18:00 +10°C° 0.1 mm 3 mps 740 mmHg 85%
    19:00 +9°C° 0.1 mm 3 mps 741 mmHg 88%
    20:00 +8°C° 0.1 mm 3 mps 741 mmHg 90%
    21:00 +8°C° 0 mm 3 mps 741 mmHg 91%
    22:00 +8°C° 0 mm 3 mps 741 mmHg 92%
    23:00 +7°C° 0 mm 3 mps 741 mmHg 92%

    24 September, Monday

    Time Temperature Precipitation Wind Pressure Humidity
    00:00 +7°C° 0 mm 3 mps 741 mmHg 93%
    01:00 +7°C° 0 mm 3 mps 741 mmHg 94%
    02:00 +7°C° 0 mm 3 mps 741 mmHg 95%
    03:00 +7°C° 0 mm 3 mps 741 mmHg 96%
    04:00 +5°C° 0 mm 3 mps 741 mmHg 96%
    05:00 +5°C° 0 mm 3 mps 741 mmHg 97%
    06:00 +7°C° 0 mm 3 mps 741 mmHg 94%
    07:00 +8°C° 0 mm 3 mps 741 mmHg 91%
    08:00 +9°C° 0 mm 3 mps 740 mmHg 88%
    09:00 +8°C° 0.2 mm 4 mps 740 mmHg 86%
    10:00 +10°C° 0.2 mm 4 mps 739 mmHg 83%
    11:00 +9°C° 0.2 mm 5 mps 738 mmHg 81%
    12:00 +9°C° 1.8 mm 5 mps 737 mmHg 84%
    13:00 +8°C° 1.8 mm 5 mps 736 mmHg 88%
    14:00 +8°C° 1.8 mm 5 mps 735 mmHg 91%
    15:00 +8°C° 2.9 mm 6 mps 733 mmHg 92%
    16:00 +8°C° 2.9 mm 6 mps 732 mmHg 92%
    17:00 +8°C° 2.9 mm 6 mps 730 mmHg 93%
    18:00 +8°C° 3 mm 6 mps 729 mmHg 93%
    19:00 +9°C° 3 mm 5 mps 728 mmHg 93%
    20:00 +9°C° 3 mm 5 mps 726 mmHg 94%
    21:00 +9°C° 0.5 mm 5 mps 726 mmHg 92%
    22:00 +9°C° 0.5 mm 5 mps 725 mmHg 90%
    23:00 +9°C° 0.5 mm 5 mps 724 mmHg 88%

    25 September, Tuesday

    Time Temperature Precipitation Wind Pressure Humidity
    00:00 +9°C° 0.2 mm 5 mps 724 mmHg 89%
    01:00 +8°C° 0.2 mm 5 mps 725 mmHg 90%
    02:00 +7°C° 0.2 mm 5 mps 725 mmHg 91%
    03:00 +7°C° 0.3 mm 6 mps 725 mmHg 90%
    04:00 +7°C° 0.3 mm 6 mps 726 mmHg 89%
    05:00 +5°C° 0.3 mm 7 mps 726 mmHg 89%
    06:00 +5°C° 1 mm 8 mps 727 mmHg 88%
    07:00 +5°C° 1 mm 8 mps 728 mmHg 88%
    08:00 +5°C° 1 mm 9 mps 729 mmHg 87%
    09:00 +3°C° 1 mm 9 mps 731 mmHg 86%
    10:00 +3°C° 1 mm 9 mps 732 mmHg 85%
    11:00 +3°C° 1 mm 9 mps 734 mmHg 83%
    12:00 +4°C° 0.3 mm 8 mps 736 mmHg 80%
    13:00 +4°C° 0.3 mm 8 mps 737 mmHg 77%
    14:00 +5°C° 0.3 mm 7 mps 739 mmHg 73%
    15:00 +4°C° 0 mm 6 mps 740 mmHg 72%
    16:00 +5°C° 0 mm 5 mps 741 mmHg 71%
    17:00 +5°C° 0 mm 4 mps 742 mmHg 70%
    18:00 +4°C° 0 mm 4 mps 742 mmHg 71%
    19:00 +4°C° 0 mm 4 mps 743 mmHg 73%
    20:00 +3°C° 0 mm 4 mps 744 mmHg 74%
    21:00 +3°C° 0 mm 3 mps 744 mmHg 77%
    22:00 +3°C° 0 mm 3 mps 745 mmHg 80%
    23:00 +3°C° 0 mm 3 mps 746 mmHg 84%
    Show more